Regional Weather Roundup
Issued by NWS State College, PA

Home | Current Version | Previous Version | Text Only | Print | Product List | Glossary Off
Versions: 1 2 3 4 5 6 7 8 9 10 11 12 13 14 15 16 17 18 19 20 21 22 23 24 25 26 27 28 29 30 31 32 33 34 35 36 37 38 39 40 41 42 43 44 45 46 47 48 49 50

000
ASUS41 KCTP 210010
RWRCTP

REGIONAL WEATHER ROUNDUP
NATIONAL WEATHER SERVICE STATE COLLEGE PA
700 PM EST MON FEB 20 2017

Note: "fair" indicates few or no clouds below 12,000 feet with no
significant weather and/or obstructions to visibility.

* = STATION THAT DOES NOT REPORT PRECIPITATION /E.G. RAIN...SNOW...ETC/
    THUNDER OR FOG.

PAZ002>004-007>009-013>016-020>023-029>032-210100-
WESTERN PENNSYLVANIA

CITY           SKY/WX    TMP DP  RH WIND       PRES   REMARKS
ERIE           PTCLDY    38  28  67 NE8       30.25F
MEADVILLE      PTCLDY    48  30  49 E3        30.22S
FRANKLIN*      PTCLDY    48  27  43 E3        30.23S
NEW CASTLE     FAIR      50  30  46 NE5       30.22S
BEAVER COUNTY  CLEAR     55  28  35 CALM      30.20F
BUTLER*        CLOUDY    48  28  46 E3        30.22S
PITTSBURGH INT CLOUDY    54  34  46 E3        30.20F
PITTSBURGH     PTCLDY    55  31  39 E5        30.20S
INDIANA*       CLEAR     46  34  61 CALM      30.25S
LATROBE        CLEAR     50  32  50 CALM      30.22F
WASHINGTON CO* PTCLDY    48  36  61 CALM      30.22R
$$

PAZ004>006-010>012-017>019-024>028-033>037-041-042-045-046-049>053-210100-
CENTRAL PENNSYLVANIA

CITY           SKY/WX    TMP DP  RH WIND       PRES   REMARKS
BRADFORD       CLOUDY    41  20  43 E3        30.24S
DUBOIS         CLEAR     50  25  37 E5        30.22S
CLEARFIELD       N/A    N/A N/A N/A MISG      30.23S
JOHNSTOWN      CLEAR     50  26  39 NE3       30.21F
ALTOONA        CLEAR     52  29  41 E3        30.23S
STATE COLLEGE  CLEAR     46  27  46 NE3       30.24S
WILLIAMSPORT   CLEAR     45  20  36 CALM      30.28R
SELINSGROVE    CLEAR     44  24  45 NE7       30.28R
FT INDIANTOWN  CLEAR     46  24  42 CALM      30.27R
CAPITAL CITY   CLEAR     53  21  28 NE3       30.27R
HARRISBURG     PTCLDY    51  23  33 CALM      30.26R
YORK           CLEAR     38  29  70 CALM      30.26R
$$

PAZ038>040-043-044-047-048-054-055-060>062-067>071-210100-
EASTERN PENNSYLVANIA

CITY           SKY/WX    TMP DP  RH WIND       PRES   REMARKS
SCRANTON       CLEAR     39  17  41 NE6       30.29R
MOUNT POCONO   CLEAR     35  12  38 NW7       30.24R
ALLENTOWN      CLEAR     44  15  31 N3        30.29R
QUAKERTOWN*    CLEAR     45  16  31 N5        30.28R
READING        CLEAR     47  19  33 N5        30.26R
LANCASTER      CLEAR     49  24  37 N5        30.26R
COATESVILLE    CLEAR     48  25  40 NW3       30.27R
POTTSTOWN      CLEAR     46  15  28 NE7       30.28R
BLUE BELL      CLEAR     45  19  36 CALM      30.27R
DOYLESTOWN     CLEAR     47  17  30 NE3       30.27R
WILLOW GROVE   NOT AVBL
NORTH PHILA    CLEAR     47  20  34 N6        30.29R
PHILADELPHIA   PTCLDY    52  18  26 N10       30.27R
$$




USA.gov is the U.S. government's official web portal to all federal, state and local government web resources and services.